Location: Natural Bridges National Monument
(37.6093°N, 109.9767°W)
Time: 22:49:56
(UTC-06:00)

Amateur Radio Satellites - All Passes

Search period start: 23 July 2017 22:19
Search period end: 24 July 2017 22:19
Location: Natural Bridges National Monument, 37.6093°N, 109.9767°W

Satellite Date Start Highest point End Downlink Frequencies (MHz)
Time Altitude Azimuth
PRISM 23 Jul 22:25:06 22:27:30 15° 93° (E) 22:29:53 437.425
DELFI C3 23 Jul 22:43:51 22:47:30 37° 262° (W) 22:51:11 145.870
TIGRISAT 23 Jul 22:43:56 22:47:40 28° 96° (E) 22:51:19 435.000
AO-85 23 Jul 22:47:42 22:51:59 88° 61° (ENE) 22:56:34 145.980
BEESAT 3 23 Jul 22:51:36 22:55:36 89° 238° (WSW) 22:59:31 437.485
ISS 23 Jul 23:05:09 23:07:42 21° 332° (NNW) 23:10:15 437.550
BEESAT 2 23 Jul 23:27:58 23:32:02 75° 60° (ENE) 23:36:02 435.950
M-CUBED/EXP-1 PRIME 23 Jul 23:29:40 23:33:56 36° 102° (ESE) 23:38:14 437.505
EO-88 23 Jul 23:34:22 23:36:12 13° 267° (W) 23:38:04 145.990 - 145.960
UNISAT 6 23 Jul 23:35:24 23:39:41 63° 285° (WNW) 23:43:53 437.425
FO-29 23 Jul 23:38:47 23:45:41 51° 290° (WNW) 23:51:46 435.910
LO-87 23 Jul 23:41:08 23:44:46 83° 76° (ENE) 23:48:25 145.935 - 145.965
nSIGHT-1 23 Jul 23:50:26 23:51:40 12° 341° (NNW) 23:52:53 .
PRISM 23 Jul 23:59:00 00:02:54 39° 288° (WNW) 00:06:47 437.425
ESTCUBE 1 24 Jul 00:02:55 00:07:22 85° 78° (ENE) 00:11:53 437.505/2401.250
POLYITAN 1 24 Jul 00:16:42 00:19:27 17° 94° (E) 00:22:11 437.675
DUCHIFAT 1 24 Jul 00:17:00 00:18:59 13° 92° (E) 00:20:56 145.980
SPROUT 24 Jul 00:20:36 00:24:23 31° 71° (ENE) 00:28:11 437.525
TIGRISAT 24 Jul 00:20:52 00:24:11 22° 292° (WNW) 00:27:27 435.000
AIST 2D 24 Jul 00:24:04 00:27:28 51° 100° (E) 00:30:53 435.315
RS-15 24 Jul 00:28:58 00:40:04 38° 42° (NE) 00:50:37 29.354- 29.394
QB50P2 24 Jul 00:29:00 00:32:32 26° 96° (E) 00:36:04 145.880/145.840
EO-79 24 Jul 00:41:20 00:45:09 33° 97° (E) 00:48:56 145.935-145.965
NANOSAT C BR1 24 Jul 00:42:21 00:46:04 30° 97° (E) 00:49:44 145.865
VELOX 1 24 Jul 00:54:37 00:58:58 68° 76° (ENE) 01:03:24 145.980
50 SAT 24 Jul 00:57:21 01:00:06 23° 71° (ENE) 01:02:53 437.505
M-CUBED/EXP-1 PRIME 24 Jul 01:04:31 01:08:05 23° 297° (WNW) 01:11:42 437.505
DX 1 24 Jul 01:05:20 01:08:55 26° 69° (ENE) 01:12:34 434.975-435.025
JUGNU 24 Jul 01:14:05 01:16:36 13° 175° (S) 01:19:08 437.505
Oscar 19 24 Jul 01:40:25 01:43:17 15° 92° (E) 01:46:09 437.125/150
UKube-1 24 Jul 01:50:00 01:54:12 54° 74° (ENE) 01:58:26 .
O/OREOS (USA 219) 24 Jul 01:50:01 01:54:20 45° 65° (ENE) 01:58:38 437.305
DUCHIFAT 1 24 Jul 01:50:52 01:54:51 44° 287° (WNW) 01:58:48 145.980
POLYITAN 1 24 Jul 01:51:30 01:55:19 34° 288° (WNW) 01:59:06 437.675
Gurwin Techsat 1B 24 Jul 01:56:15 01:58:46 13° 91° (E) 02:01:17 435.225
SPROUT 24 Jul 01:57:07 02:00:17 20° 266° (W) 02:03:28 437.525
QB50P2 24 Jul 02:04:53 02:08:12 23° 291° (WNW) 02:11:29 145.880/145.840
EO-79 24 Jul 02:17:44 02:20:39 18° 293° (WNW) 02:23:32 145.935-145.965
NANOSAT C BR1 24 Jul 02:18:30 02:21:33 20° 292° (WNW) 02:24:35 145.865
BUGSAT 1 24 Jul 02:24:47 02:28:51 66° 285° (WNW) 02:32:51 437.445
50 SAT 24 Jul 02:30:44 02:32:48 15° 266° (W) 02:34:54 437.505
MOZHAYETS 4 24 Jul 02:32:26 02:33:13 10° 63° (ENE) 02:34:00
DX 1 24 Jul 02:41:26 02:45:01 25° 264° (W) 02:48:38 434.975-435.025
RS-15 24 Jul 02:41:32 02:53:24 69° 246° (WSW) 03:04:37 29.354- 29.394
BEESAT 24 Jul 02:54:05 02:58:06 27° 68° (ENE) 03:02:07 436.000
Tancredo 1 24 Jul 03:02:13 03:04:36 21° 30° (NNE) 03:06:59 437.200
JUGNU 24 Jul 03:02:14 03:04:46 13° 185° (S) 03:07:17 437.505
nSIGHT-1 24 Jul 03:05:16 03:06:58 13° 22° (NNE) 03:08:41 .
ITUPSAT 1 24 Jul 03:06:04 03:10:24 35° 70° (ENE) 03:14:45 437.325
Oscar 19 24 Jul 03:17:51 03:22:56 58° 286° (WNW) 03:28:00 437.125/150
UKube-1 24 Jul 03:29:05 03:30:31 11° 268° (W) 03:31:57 .
ITAMSAT 1 24 Jul 03:30:29 03:31:53 11° 90° (E) 03:33:15 435.822/435.867
O/OREOS (USA 219) 24 Jul 03:30:48 03:33:18 15° 261° (W) 03:35:48 437.305
Gurwin Techsat 1B 24 Jul 03:33:52 03:39:09 67° 286° (WNW) 03:44:25 435.225
ISS 24 Jul 03:57:29 04:00:22 28° 31° (NNE) 04:03:16 437.550
SRMSAT 24 Jul 04:01:03 04:03:29 13° 175° (S) 04:05:54 437.500
MOZHAYETS 4 24 Jul 04:05:09 04:09:43 74° 258° (WSW) 04:14:18
AO-7 24 Jul 04:30:27 04:38:33 51° 102° (ESE) 04:46:34 .
BEESAT 24 Jul 04:31:40 04:35:46 28° 264° (W) 04:39:52 436.000
CUBESAT XI-V 24 Jul 04:36:44 04:41:02 43° 72° (ENE) 04:45:23 437.345
Tancredo 1 24 Jul 04:37:21 04:40:03 32° 226° (SW) 04:42:44 437.200
nSIGHT-1 24 Jul 04:40:35 04:43:49 78° 37° (NE) 04:47:03 .
ITUPSAT 1 24 Jul 04:44:37 04:48:16 22° 265° (W) 04:51:56 437.325
PCSat 24 Jul 04:45:44 04:49:23 19° 105° (ESE) 04:53:04 145.827
KKS-1 24 Jul 04:55:12 04:59:19 38° 71° (ENE) 05:03:29 437.445
RS-15 24 Jul 04:59:21 05:03:19 12° 266° (W) 05:07:13 29.354- 29.394
ITAMSAT 1 24 Jul 05:06:39 05:11:51 77° 285° (WNW) 05:17:01 435.822/435.867
STARS 24 Jul 05:28:21 05:32:23 36° 71° (ENE) 05:36:27 437.465
ISS 24 Jul 05:33:59 05:36:48 27° 228° (SW) 05:39:37 437.550
SRMSAT 24 Jul 05:49:22 05:51:46 13° 185° (S) 05:54:11 437.500
YUBILEINY 24 Jul 05:49:56 05:57:37 32° 72° (ENE) 06:05:10 435.215
SO-50 24 Jul 05:51:18 05:52:20 11° 107° (ESE) 05:53:21 436.795
DOVE 4 24 Jul 06:10:58 06:15:41 32° 95° (E) 06:20:11 437.250
CUBESAT XI-V 24 Jul 06:15:44 06:18:35 16° 267° (W) 06:21:28 437.345
AO-7 24 Jul 06:23:40 06:30:58 35° 299° (WNW) 06:38:15 .
XW-2B 24 Jul 06:23:51 06:24:56 11° 92° (E) 06:26:03 145.730 - 145.750
PCSat 24 Jul 06:27:01 06:32:18 54° 301° (WNW) 06:37:39 145.827
KKS-1 24 Jul 06:32:59 06:35:59 18° 266° (W) 06:39:01 437.445
XW-2C 24 Jul 06:39:41 06:42:23 19° 95° (E) 06:45:04 145.795 - 145.815
CUTE-I 24 Jul 06:46:43 06:50:57 23° 95° (E) 06:55:08 437.470
NUDT-PHONESAT 24 Jul 06:51:54 06:54:33 19° 95° (E) 06:57:12 437.300
STRAND 1 24 Jul 06:59:07 07:03:04 23° 66° (ENE) 07:07:02 437.568
LilacSat-2 24 Jul 07:01:05 07:04:37 37° 98° (E) 07:08:09 437.200
KAITUO 1B 24 Jul 07:04:10 07:07:25 28° 97° (E) 07:10:39 145.475/437.950
STARS 24 Jul 07:05:43 07:08:47 18° 266° (W) 07:11:54 437.465
XW-2F 24 Jul 07:17:37 07:21:19 55° 100° (E) 07:25:00 145.980 - 146.000
SO-50 24 Jul 07:27:39 07:32:10 70° 302° (WNW) 07:36:41 436.795
XW-2D 24 Jul 07:45:38 07:49:18 54° 284° (WNW) 07:52:58 145.860 - 145.880
YUBILEINY 24 Jul 07:46:18 07:54:38 51° 271° (W) 08:02:55 435.215
DOVE 4 24 Jul 07:48:44 07:53:10 28° 292° (WNW) 07:57:30 437.250
XW-2B 24 Jul 07:55:46 07:59:18 41° 286° (WNW) 08:02:52 145.730 - 145.750
FO-29 24 Jul 08:07:04 08:09:50 12° 53° (NE) 08:12:37 435.910
CUTE 1.7 + AOD 2 24 Jul 08:10:31 08:14:28 37° 98° (E) 08:18:25 437.475
XW-2C 24 Jul 08:13:25 08:16:31 25° 289° (WNW) 08:19:37 145.795 - 145.815
SEEDS 24 Jul 08:24:48 08:28:39 33° 97° (E) 08:32:29 437.485
NUDT-PHONESAT 24 Jul 08:25:26 08:28:22 23° 289° (WNW) 08:31:20 437.300
XW-2A 24 Jul 08:25:36 08:28:34 29° 97° (E) 08:31:30 145.665 - 145.685
CUTE-I 24 Jul 08:26:07 08:31:05 40° 290° (WNW) 08:36:01 437.470
HO-68 24 Jul 08:35:13 08:42:21 66° 103° (ESE) 08:49:25 435.675
LilacSat-2 24 Jul 08:36:43 08:38:33 13° 293° (WNW) 08:40:22 437.200
STRAND 1 24 Jul 08:37:09 08:41:58 40° 262° (W) 08:46:48 437.568
KAITUO 1B 24 Jul 08:38:47 08:41:10 16° 291° (WNW) 08:43:33 145.475/437.950
UWE-3 24 Jul 08:40:01 08:43:17 22° 95° (E) 08:46:31 435.000/436.395/437.385
ZACube-1 24 Jul 08:56:20 08:59:12 18° 94° (E) 09:02:02 437.345
AAUSAT CUBESAT 2 24 Jul 09:11:12 09:15:18 53° 100° (E) 09:19:22 437.432
CUBEBUG 2 24 Jul 09:15:33 09:19:48 75° 285° (WNW) 09:23:57 437.445
Oscar 11 24 Jul 09:23:43 09:27:20 26° 96° (E) 09:30:56 .
AO-73 24 Jul 09:36:12 09:40:14 48° 99° (E) 09:44:12 145.935
TIGRISAT 24 Jul 09:40:42 09:44:15 22° 68° (ENE) 09:47:47 435.000
FO-29 24 Jul 09:45:52 09:53:15 63° 71° (ENE) 10:01:01 435.910
CUTE 1.7 + AOD 2 24 Jul 09:47:16 09:49:58 17° 293° (WNW) 09:52:42 437.475
XW-2A 24 Jul 09:59:34 10:00:59 12° 292° (WNW) 10:02:25 145.665 - 145.685
SEEDS 24 Jul 10:01:09 10:04:03 18° 292° (WNW) 10:06:57 437.485
M-CUBED/EXP-1 PRIME 24 Jul 10:14:16 10:17:20 27° 65° (ENE) 10:20:37 437.505
UWE-3 24 Jul 10:16:13 10:19:41 26° 290° (WNW) 10:23:07 435.000/436.395/437.385
DELFI C3 24 Jul 10:22:32 10:26:02 28° 97° (E) 10:29:30 145.870
HO-68 24 Jul 10:24:08 10:29:25 23° 300° (WNW) 10:34:43 435.675
UNISAT 6 24 Jul 10:31:24 10:36:05 86° 74° (ENE) 10:40:41 437.425
ZACube-1 24 Jul 10:31:52 10:35:32 31° 289° (WNW) 10:39:10 437.345
PRISM 24 Jul 10:45:39 10:49:42 75° 258° (WSW) 10:53:50 437.425
AAUSAT CUBESAT 2 24 Jul 10:48:40 10:50:15 12° 295° (WNW) 10:51:51 437.432
AIST 2D 24 Jul 10:57:47 10:59:41 14° 69° (ENE) 11:01:34 435.315
Oscar 11 24 Jul 10:59:52 11:03:20 24° 291° (WNW) 11:06:48 .
EO-88 24 Jul 11:02:47 11:06:21 55° 100° (E) 11:09:56 145.990 - 145.960
POLYITAN 1 24 Jul 11:09:08 11:10:15 11° 64° (ENE) 11:11:24 437.675
AO-73 24 Jul 11:14:14 11:16:01 13° 295° (WNW) 11:17:46 145.935
TIGRISAT 24 Jul 11:16:30 11:20:42 33° 263° (W) 11:24:53 435.000
QB50P2 24 Jul 11:20:23 11:23:05 17° 67° (ENE) 11:25:47 145.880/145.840
NO-84 24 Jul 11:22:40 11:25:25 36° 129° (SE) 11:28:23 435.350 FM
EO-79 24 Jul 11:32:13 11:35:22 20° 68° (ENE) 11:38:31 145.935-145.965
FO-29 24 Jul 11:32:37 11:38:39 26° 269° (W) 11:44:57 435.910
NANOSAT C BR1 24 Jul 11:33:01 11:35:58 19° 68° (ENE) 11:38:56 145.865
M-CUBED/EXP-1 PRIME 24 Jul 11:49:22 11:51:49 17° 262° (W) 11:54:22 437.505
DELFI C3 24 Jul 11:57:42 12:00:35 19° 291° (WNW) 12:03:27 145.870
ESTCUBE 1 24 Jul 11:57:57 12:01:20 21° 94° (E) 12:04:43 437.505/2401.250
AIST 2D 24 Jul 12:29:34 12:32:37 28° 263° (W) 12:35:40 435.315
BEESAT 3 24 Jul 12:39:49 12:42:59 23° 112° (ESE) 12:46:11 437.485
DUCHIFAT 1 24 Jul 12:39:55 12:44:10 82° 259° (W) 12:48:25 145.980
POLYITAN 1 24 Jul 12:41:15 12:45:29 62° 259° (W) 12:49:43 437.675
LO-87 24 Jul 12:43:13 12:46:46 57° 284° (WNW) 12:50:16 145.935 - 145.965
VELOX 1 24 Jul 12:47:53 12:50:24 15° 93° (E) 12:52:54 145.980
QB50P2 24 Jul 12:54:32 12:58:32 39° 262° (W) 13:02:33 145.880/145.840
Oscar 19 24 Jul 12:55:23 12:58:53 19° 65° (ENE) 13:02:25 437.125/150
NO-84 24 Jul 13:00:46 13:03:01 18° 328° (NNW) 13:05:23 435.350 FM
AO-85 24 Jul 13:00:47 13:04:35 41° 116° (ESE) 13:08:18 145.980
EO-79 24 Jul 13:07:07 13:10:54 31° 263° (W) 13:14:42 145.935-145.965
NANOSAT C BR1 24 Jul 13:07:34 13:11:25 33° 262° (W) 13:15:18 145.865
BUGSAT 1 24 Jul 13:11:49 13:16:00 63° 75° (ENE) 13:20:12 437.445
Gurwin Techsat 1B 24 Jul 13:15:05 13:18:46 19° 64° (ENE) 13:22:28 435.225
BEESAT 2 24 Jul 13:18:07 13:21:01 20° 111° (ESE) 13:23:57 435.950
ESTCUBE 1 24 Jul 13:34:07 13:38:10 33° 289° (WNW) 13:42:12 437.505/2401.250
PCSat 24 Jul 13:35:26 13:37:46 13° 43° (NE) 13:40:06 145.827
AO-7 24 Jul 13:41:19 13:44:08 12° 47° (NE) 13:46:56 .
UKube-1 24 Jul 13:42:13 13:42:27 10° 91° (E) 13:42:41 .
SPROUT 24 Jul 13:43:11 13:47:28 79° 102° (ESE) 13:51:42 437.525
50 SAT 24 Jul 13:53:09 13:56:14 30° 98° (E) 13:59:17 437.505
BEESAT 3 24 Jul 14:16:58 14:20:25 27° 308° (NW) 14:23:55 437.485
VELOX 1 24 Jul 14:22:47 14:27:02 45° 287° (WNW) 14:31:16 145.980
DX 1 24 Jul 14:30:24 14:34:46 63° 101° (ESE) 14:39:05 434.975-435.025
Oscar 19 24 Jul 14:32:53 14:37:48 48° 260° (W) 14:42:46 437.125/150
AO-85 24 Jul 14:42:36 14:45:08 16° 312° (NW) 14:47:39 145.980
ITAMSAT 1 24 Jul 14:45:44 14:48:52 16° 63° (ENE) 14:52:00 435.822/435.867
RS-15 24 Jul 14:52:13 15:01:02 24° 100° (E) 15:09:56 29.354- 29.394
Gurwin Techsat 1B 24 Jul 14:53:09 14:58:17 50° 260° (W) 15:03:28 435.225
BEESAT 2 24 Jul 14:54:56 14:58:32 32° 307° (NW) 15:02:11 435.950
UKube-1 24 Jul 15:14:32 15:18:49 61° 286° (WNW) 15:23:04 .
PCSat 24 Jul 15:16:35 15:22:02 80° 62° (ENE) 15:27:27 145.827
AO-7 24 Jul 15:27:00 15:35:08 59° 67° (ENE) 15:43:18 .
50 SAT 24 Jul 15:27:02 15:28:39 13° 292° (WNW) 15:30:16 437.505
O/OREOS (USA 219) 24 Jul 16:00:04 16:04:33 79° 108° (ESE) 16:09:02 437.305
SO-50 24 Jul 16:00:33 16:05:03 59° 57° (ENE) 16:09:34 436.795
MOZHAYETS 4 24 Jul 16:02:20 16:06:17 28° 96° (E) 16:10:13
DX 1 24 Jul 16:08:55 16:10:22 11° 297° (WNW) 16:11:50 434.975-435.025
ITAMSAT 1 24 Jul 16:22:38 16:27:47 60° 259° (WSW) 16:32:59 435.822/435.867
BEESAT 24 Jul 16:32:41 16:37:27 84° 104° (ESE) 16:42:12 436.000
CUBESAT XI-V 24 Jul 16:36:51 16:38:48 12° 91° (E) 16:40:45 437.345
ITUPSAT 1 24 Jul 16:45:31 16:50:16 74° 285° (WNW) 16:55:00 437.325
RS-15 24 Jul 16:59:46 17:11:58 86° 300° (WNW) 17:24:26 29.354- 29.394
PCSat 24 Jul 17:02:49 17:04:40 12° 258° (WSW) 17:06:31 145.827
DOVE 4 24 Jul 17:14:20 17:18:18 26° 67° (ENE) 17:22:27 437.250
AO-7 24 Jul 17:21:18 17:28:13 29° 264° (W) 17:35:13 .
MOZHAYETS 4 24 Jul 17:39:37 17:43:17 25° 291° (WNW) 17:46:57
LilacSat-2 24 Jul 17:42:16 17:44:26 15° 68° (ENE) 17:46:35 437.200
SO-50 24 Jul 17:42:49 17:45:00 13° 252° (WSW) 17:47:11 436.795
O/OREOS (USA 219) 24 Jul 17:43:59 17:44:31 10° 306° (NW) 17:45:03 437.305
KAITUO 1B 24 Jul 17:44:40 17:45:27 11° 66° (ENE) 17:46:14 145.475/437.950
XW-2F 24 Jul 17:57:13 17:59:58 20° 70° (ENE) 18:02:43 145.980 - 146.000
NO-84 24 Jul 17:57:14 17:59:56 18° 32° (NNE) 18:02:46 435.350 FM
CUTE-I 24 Jul 18:06:26 18:11:10 33° 68° (ENE) 18:15:54 437.470
CUBESAT XI-V 24 Jul 18:11:54 18:16:30 58° 285° (WNW) 18:21:05 437.345
KKS-1 24 Jul 18:23:55 18:28:24 81° 283° (WNW) 18:32:51 437.445
XW-2D 24 Jul 18:24:33 18:28:11 48° 75° (ENE) 18:31:49 145.860 - 145.880
XW-2B 24 Jul 18:34:31 18:38:13 64° 76° (ENE) 18:41:56 145.730 - 145.750
YUBILEINY 24 Jul 18:48:17 18:56:16 40° 87° (E) 19:04:14 435.215
DOVE 4 24 Jul 18:51:28 18:55:46 33° 265° (W) 19:00:20 437.250
XW-2C 24 Jul 18:51:48 18:55:32 72° 258° (WSW) 18:59:17 145.795 - 145.815
STARS 24 Jul 18:55:11 18:59:37 89° 280° (W) 19:04:00 437.465
NUDT-PHONESAT 24 Jul 19:01:40 19:05:20 73° 259° (W) 19:09:00 437.300
HO-68 24 Jul 19:01:45 19:08:20 41° 66° (ENE) 19:14:55 435.675
CUTE 1.7 + AOD 2 24 Jul 19:01:46 19:04:55 21° 69° (ENE) 19:08:04 437.475
LilacSat-2 24 Jul 19:15:00 19:18:24 32° 263° (W) 19:21:49 437.200
SEEDS 24 Jul 19:15:15 19:18:07 18° 68° (ENE) 19:21:01 437.485
KAITUO 1B 24 Jul 19:15:28 19:19:00 45° 261° (W) 19:22:34 145.475/437.950
RS-15 24 Jul 19:16:14 19:26:30 30° 326° (NW) 19:36:51 29.354- 29.394
XW-2F 24 Jul 19:30:56 19:33:57 23° 264° (W) 19:36:58 145.980 - 146.000
Tancredo 1 24 Jul 19:31:14 19:32:11 11° 128° (SE) 19:33:08 437.200
NO-84 24 Jul 19:33:48 19:37:45 72° 227° (SW) 19:41:58 435.350 FM
UWE-3 24 Jul 19:35:27 19:38:20 17° 67° (ENE) 19:41:11 435.000/436.395/437.385
CUTE-I 24 Jul 19:46:32 19:51:09 29° 264° (W) 19:55:48 437.470
ZACube-1 24 Jul 19:51:12 19:53:14 13° 66° (ENE) 19:55:15 437.345
AAUSAT CUBESAT 2 24 Jul 19:59:36 20:03:01 26° 70° (ENE) 20:06:27 437.432
CUBEBUG 2 24 Jul 20:10:42 20:15:23 70° 76° (ENE) 20:20:00 437.445
Oscar 11 24 Jul 20:17:25 20:20:07 17° 67° (ENE) 20:22:49 .
XW-2A 24 Jul 20:26:52 20:30:10 50° 260° (W) 20:33:28 145.665 - 145.685
AO-73 24 Jul 20:29:35 20:33:27 30° 71° (ENE) 20:37:16 145.935
ISS 24 Jul 20:36:22 20:38:55 21° 131° (SE) 20:41:29 437.550
CUTE 1.7 + AOD 2 24 Jul 20:36:56 20:40:33 28° 264° (W) 20:44:12 437.475
YUBILEINY 24 Jul 20:44:42 20:52:55 42° 285° (WNW) 21:01:11 435.215
STRAND 1 24 Jul 20:49:07 20:54:16 81° 103° (ESE) 20:59:21 437.568
HO-68 24 Jul 20:49:32 20:56:00 36° 262° (W) 21:02:32 435.675
SEEDS 24 Jul 20:49:51 20:53:33 32° 263° (W) 20:57:18 437.485
Tancredo 1 24 Jul 21:04:23 21:07:14 50° 323° (NW) 21:10:07 437.200
DELFI C3 24 Jul 21:07:28 21:09:18 13° 66° (ENE) 21:11:09 145.870
UWE-3 24 Jul 21:10:02 21:14:25 44° 261° (W) 21:18:45 435.000/436.395/437.385
nSIGHT-1 24 Jul 21:18:08 21:21:21 68° 138° (SE) 21:24:33 .
ZACube-1 24 Jul 21:24:40 21:29:03 54° 260° (W) 21:33:21 437.345
AO-85 24 Jul 21:33:13 21:36:38 23° 51° (NE) 21:40:12 145.980
AAUSAT CUBESAT 2 24 Jul 21:35:16 21:38:25 21° 265° (W) 21:41:35 437.432
RS-15 24 Jul 21:37:41 21:45:04 17° 1° (N) 21:52:20 29.354- 29.394
EO-88 24 Jul 21:39:24 21:41:54 18° 69° (ENE) 21:44:24 145.990 - 145.960
CUBEBUG 2 24 Jul 21:51:37 21:52:21 10° 270° (W) 21:53:06 437.445
Oscar 11 24 Jul 21:51:53 21:55:55 39° 262° (W) 21:59:57 .
AO-73 24 Jul 22:06:16 22:09:40 21° 265° (W) 22:13:02 145.935
ISS 24 Jul 22:12:15 22:15:15 33° 327° (NNW) 22:18:15 437.550
